Location: Kaarina
(60.4167°N, 22.4167°E)
Time: 18:22:56
(UTC+03:00)

Cosmos 1674 - Pass Details

Date: 24 August 2019
Orbit: 495 x 519 km, 82.5° (Epoch: 17 September)

Event Time Altitude Azimuth Distance (km) Brightness Sun altitude
Rises 23:47:27 0° 349° (N) 2,654 7.9 -15.6°
Reaches altitude 10° 23:49:49 10° 1° (N) 1,758 6.4 -15.7°
Maximum altitude 23:53:13 29° 62° (ENE) 976 4.1 -15.9°
Enters shadow 23:54:55 20° 105° (ESE) 1,215 4.2 -16.0°
